weather.gov     
National Weather Service

Regional Weather Roundup
NWS Homepage
This page is being discontinued on March 12, 2014.
The same data is available at this site. Please update your bookmarks.
Thank you, and we apologize for the inconvenience.
Please send an email to SR-SRH.Webmaster@noaa.gov with any concerns.


Current Version
Previous Version:    01  02  03  04  05  06  07  08  09  10  11  12  13  14  15  16  17  18  19  20  21  22  
[Printable]
158
ASUS45 KBOU 021707
RWRCO

WEATHER ROUNDUP FOR COLORADO
NATIONAL WEATHER SERVICE DENVER/BOULDER CO
1100 AM MDT TUE SEP 02 2014

NOTE: "FAIR" INDICATES FEW OR NO CLOUDS BELOW 12000 FEET WITH NO
SIGNIFICANT WEATHER AND/OR OBSTRUCTIONS TO VISIBILITY.

COZ001>005-013-030-031-021800-
...NORTHWEST COLORADO...

CITY           SKY/WX    TMP DP  RH WIND       PRES   REMARKS
CRAIG          SUNNY     68  39  34 NE9       30.20F
HAYDEN         SUNNY     63  36  36 E5        30.22S
MEEKER         SUNNY     69  40  34 CALM      30.20F
MOUNT WERNER   NOT AVBL
STEAMBOAT SPGS SUNNY     60  43  52 W3        30.24S
WALDEN         SUNNY     63  30  29 SW8       30.27S
$$

COZ006>008-011-021800-
...WEST CENTRAL VALLEYS...

CITY           SKY/WX    TMP DP  RH WIND       PRES   REMARKS
GRAND JUNCTION SUNNY     74  37  26 SE8       30.11F
MONTROSE       SUNNY     74  43  32 N6        30.19F
EAGLE          SUNNY     63  36  36 CALM      30.26F
RIFLE          SUNNY     67  40  37 CALM      30.17F
DELTA          SUNNY     75  39  27 CALM      30.15F
NUCLA          SUNNY     72  36  26 W3        30.22F
$$

COZ017>023-064>068-021800-
...SOUTHWEST COLORADO...

CITY           SKY/WX    TMP DP  RH WIND       PRES   REMARKS
DURANGO        SUNNY     75  34  22 SE6       30.24F
CORTEZ         SUNNY     80  38  22 S3        30.18F
PAGOSA SPRINGS SUNNY     74  30  19 CALM      30.33S
TELLURIDE      NOT AVBL
WOLF CREEK PAS SUNNY     54  32  43 SW10G17   30.61S
$$

COZ009-010-012-014-032>034-037-058>063-021800-
...CENTRAL COLORADO...

CITY           SKY/WX    TMP DP  RH WIND       PRES   REMARKS
ASPEN          SUNNY     72  32  23 N8        30.29F
BUENA VISTA    SUNNY     70  29  22 SE8       30.30F
COPPER MTN     SUNNY     54  23  30 W24G39    30.57R
BERTHOUD PASS  FAIR      45  43  93 NW31G43   30.56R
COTTONWOOD PAS SUNNY     68  19  15 W7G24     30.43S
GUNNISON       SUNNY     59  34  38 CALM      30.36F
KREMMLING      SUNNY     59  32  36 CALM      30.29F
LEADVILLE      SUNNY     62  27  26 W15G28    30.43R
MONARCH PASS   SUNNY     50  30  46 W22G30    30.69S
SALIDA         SUNNY     71  38  30 NE5       30.34F
SUNLIGHT       SUNNY     61  36  39 CALM      30.52R
WILKERSON PASS NOT AVBL
$$

COZ069>075-021800-
...SAN LUIS VALLEY/SANGRE DE CRISTO MOUNTAINS...

CITY           SKY/WX    TMP DP  RH WIND       PRES   REMARKS
ALAMOSA        SUNNY     70  33  25 CALM      30.31S
LA VETA PASS   NOT AVBL
SAGUACHE       NOT AVBL
$$

COZ035-036-038>040-021800-
...NORTHERN COLORADO FRONT RANGE...

CITY           SKY/WX    TMP DP  RH WIND       PRES   REMARKS
DENVER INTL AP MOSUNNY   70  48  45 VRB6      30.11F
DMNS CITY PARK   N/A     73  42  32 CALM      30.10F
AURORA         MOSUNNY   74  50  42 VRB7      30.12F
FRONT RANGE AP NOT AVBL
ERIE MUNI ARPT SUNNY     70  44  38 CALM      30.09F
BOULDER MUN AP SUNNY     70  41  35 CALM      30.10S
CENTENNIAL     MOSUNNY   76  44  32 CALM      30.12F
BROOMFIELD     SUNNY     70  39  32 CALM      30.13S
FORT COLLINS   SUNNY     66  48  52 SE5       30.11S
LONGMONT       SUNNY     72  46  40 SE3       30.11S
$$

COZ041-046-047-076>085-087-088-021800-
...PIKES PEAK/PALMER DIVIDE AND SOUTHERN FOOTHILLS...

CITY           SKY/WX    TMP DP  RH WIND       PRES   REMARKS
COLO. SPRINGS  MOSUNNY   68  56  65 S14G20    30.21F
A. F. ACADEMY  MOSUNNY   66  53  64 S15       30.22S
ELLICOTT       NOT AVBL
FALCON         PTSUNNY   65  55  68 SW14      30.25S
FORT CARSON    MOSUNNY   71  56  59 SE10      30.18F
LIMON          CLOUDY    69  58  67 S15       30.15F
MONUMENT HILL  SUNNY     68  50  52 S17       30.21S
TRINIDAD       SUNNY     75  50  41 CALM      30.18F
$$

COZ042>045-048>051-090-091-021800-
...NORTHEAST COLORADO...

CITY           SKY/WX    TMP DP  RH WIND       PRES   REMARKS
GREELEY ARPT   SUNNY     68  46  45 CALM      30.10S
AKRON          SUNNY     68  52  56 S12G24    30.10F
BURLINGTON     SUNNY     73  57  57 S17       30.11S
WRAY             N/A     77  61  57 S10       30.07F
STERLING       SUNNY     70  55  60 SW6       30.07F
HOLYOKE        PTSUNNY   73  59  60 S10       30.07F
FORT MORGAN    SUNNY     67  48  49 S5        30.10S
$$

COZ086-089-092>099-021800-
...SOUTHEAST COLORADO...

CITY           SKY/WX    TMP DP  RH WIND       PRES   REMARKS
PUEBLO         SUNNY     72  58  61 E6        30.12F
LA JUNTA       PTSUNNY   71  62  73 S6        30.11F
LAMAR          SUNNY     77  58  51 S10G17    30.07F
SPRINGFIELD      N/A     74  59  59 VRB5      30.11F
$$




U.S. Dept. of Commerce
NOAA National Weather Service
1325 East West Highway
Silver Spring, MD 20910
E-mail: w-nws.webmaster@noaa.gov
Page last modified: May 16, 2007
NATIONAL WEATHER SERVICE: for Safety, for Work, for Fun - FOR LIFE